Time,TemperatureF,DewpointF,PressureIn,WindDirection,WindDirectionDegrees,WindSpeedMPH,WindSpeedGustMPH,Humidity,HourlyPrecipIn,Conditions,Clouds,dailyrainin,SoftwareType,DateUTC
2013-08-16 00:00:00,63.5,50.2,29.80,WNW,295,0.0,0.0,62,0.00,CLR,,0.00,WeatherDisplay:10.37,2013-08-16 07:00:00,
2013-08-16 00:05:00,63.5,50.7,29.79,WNW,295,0.0,0.0,63,0.00,CLR,,0.00,WeatherDisplay:10.37,2013-08-16 07:05:00,
2013-08-16 00:10:00,63.2,50.4,29.79,WNW,295,0.0,0.0,63,0.00,CLR,,0.00,WeatherDisplay:10.37,2013-08-16 07:10:00,
2013-08-16 00:15:00,63.1,50.7,29.79,WNW,295,0.0,0.0,64,0.00,CLR,,0.00,WeatherDisplay:10.37,2013-08-16 07:15:00,
2013-08-16 00:20:00,62.9,50.5,29.79,WNW,295,0.0,0.0,64,0.00,CLR,,0.00,WeatherDisplay:10.37,2013-08-16 07:20:00,
2013-08-16 00:25:00,62.7,50.8,29.79,WNW,295,0.0,0.0,65,0.00,CLR,,0.00,WeatherDisplay:10.37,2013-08-16 07:25:00,
2013-08-16 00:30:00,62.6,50.7,29.79,WNW,295,0.0,0.0,65,0.00,CLR,,0.00,WeatherDisplay:10.37,2013-08-16 07:30:00,
2013-08-16 00:35:00,62.6,50.7,29.79,WNW,295,0.0,0.0,65,0.00,CLR,,0.00,WeatherDisplay:10.37,2013-08-16 07:35:00,
2013-08-16 00:40:00,62.4,50.5,29.80,WNW,295,0.0,0.0,65,0.00,CLR,,0.00,WeatherDisplay:10.37,2013-08-16 07:40:00,
2013-08-16 00:45:00,62.4,50.5,29.80,WNW,295,0.0,0.0,65,0.00,CLR,,0.00,WeatherDisplay:10.37,2013-08-16 07:45:00,
2013-08-16 00:50:00,62.3,50.4,29.80,WNW,295,0.0,0.0,65,0.00,CLR,,0.00,WeatherDisplay:10.37,2013-08-16 07:50:00,
2013-08-16 00:55:00,62.3,50.8,29.80,WNW,295,0.0,0.0,66,0.00,CLR,,0.00,WeatherDisplay:10.37,2013-08-16 07:55:00,
2013-08-16 01:00:00,62.1,50.6,29.80,WNW,295,0.0,0.0,66,0.00,CLR,,0.00,WeatherDisplay:10.37,2013-08-16 08:00:00,
2013-08-16 01:05:00,62.0,50.5,29.79,WNW,295,0.0,0.0,66,0.00,CLR,,0.00,WeatherDisplay:10.37,2013-08-16 08:05:00,
2013-08-16 01:10:00,61.8,50.3,29.79,WNW,295,0.0,0.0,66,0.00,CLR,,0.00,WeatherDisplay:10.37,2013-08-16 08:10:00,
2013-08-16 01:15:00,61.5,50.4,29.79,WNW,295,0.0,0.0,67,0.00,CLR,,0.00,WeatherDisplay:10.37,2013-08-16 08:15:00,
2013-08-16 01:20:00,61.3,50.2,29.79,WNW,295,0.0,0.0,67,0.00,CLR,,0.00,WeatherDisplay:10.37,2013-08-16 08:20:00,
2013-08-16 01:25:00,61.2,50.2,29.79,WNW,295,0.0,0.0,67,0.00,CLR,,0.00,WeatherDisplay:10.37,2013-08-16 08:25:00,
2013-08-16 01:30:00,61.0,50.0,29.79,WNW,294,0.0,0.0,67,0.00,CLR,,0.00,WeatherDisplay:10.37,2013-08-16 08:30:00,
2013-08-16 01:35:00,60.9,49.9,29.79,WNW,294,0.0,0.0,67,0.00,CLR,,0.00,WeatherDisplay:10.37,2013-08-16 08:35:00,
2013-08-16 01:40:00,60.7,49.7,29.79,WNW,294,0.0,0.0,67,0.00,CLR,,0.00,WeatherDisplay:10.37,2013-08-16 08:40:00,
2013-08-16 01:45:00,60.7,49.7,29.79,WNW,294,0.0,0.0,67,0.00,CLR,,0.00,WeatherDisplay:10.37,2013-08-16 08:45:00,
2013-08-16 01:50:00,60.5,49.5,29.79,WNW,294,0.0,0.0,67,0.00,CLR,,0.00,WeatherDisplay:10.37,2013-08-16 08:50:00,
2013-08-16 01:55:00,60.4,49.4,29.80,WNW,294,0.0,0.0,67,0.00,CLR,,0.00,WeatherDisplay:10.37,2013-08-16 08:55:00,
2013-08-16 02:00:00,60.2,49.2,29.80,WNW,294,0.0,0.0,67,0.00,CLR,,0.00,WeatherDisplay:10.37,2013-08-16 09:00:00,
2013-08-16 02:05:00,60.1,49.1,29.79,WNW,292,0.0,0.0,67,0.00,CLR,,0.00,WeatherDisplay:10.37,2013-08-16 09:05:00,
2013-08-16 02:10:00,59.8,49.2,29.79,WNW,291,0.0,0.0,68,0.00,CLR,,0.00,WeatherDisplay:10.37,2013-08-16 09:10:00,
2013-08-16 02:15:00,59.6,49.0,29.79,WNW,291,0.0,0.0,68,0.00,CLR,,0.00,WeatherDisplay:10.37,2013-08-16 09:15:00,
2013-08-16 02:20:00,59.5,48.9,29.79,WNW,291,0.0,0.0,68,0.00,CLR,,0.00,WeatherDisplay:10.37,2013-08-16 09:20:00,
2013-08-16 02:25:00,59.3,48.7,29.79,WNW,291,0.0,0.0,68,0.00,CLR,,0.00,WeatherDisplay:10.37,2013-08-16 09:25:00,
2013-08-16 02:30:00,59.2,49.0,29.79,WNW,291,0.0,0.0,69,0.00,CLR,,0.00,WeatherDisplay:10.37,2013-08-16 09:30:00,
2013-08-16 02:35:00,59.0,48.8,29.79,WNW,291,0.0,0.0,69,0.00,CLR,,0.00,WeatherDisplay:10.37,2013-08-16 09:35:00,
2013-08-16 02:40:00,59.0,48.8,29.79,WNW,291,0.0,0.0,69,0.00,CLR,,0.00,WeatherDisplay:10.37,2013-08-16 09:40:00,
2013-08-16 02:45:00,58.9,48.7,29.79,WNW,291,0.0,0.0,69,0.00,CLR,,0.00,WeatherDisplay:10.37,2013-08-16 09:45:00,
2013-08-16 02:50:00,58.9,48.7,29.79,WNW,291,0.0,0.0,69,0.00,CLR,,0.00,WeatherDisplay:10.37,2013-08-16 09:50:00,
2013-08-16 02:55:00,58.9,48.7,29.79,WNW,291,0.0,0.0,69,0.00,CLR,,0.00,WeatherDisplay:10.37,2013-08-16 09:55:00,
2013-08-16 03:00:00,58.7,48.6,29.79,WNW,291,0.0,0.0,69,0.00,CLR,,0.00,WeatherDisplay:10.37,2013-08-16 10:00:00,
2013-08-16 03:05:00,58.7,48.9,29.79,WNW,291,0.0,0.0,70,0.00,CLR,,0.00,WeatherDisplay:10.37,2013-08-16 10:05:00,
2013-08-16 03:10:00,58.6,48.8,29.79,WNW,291,0.0,0.0,70,0.00,CLR,,0.00,WeatherDisplay:10.37,2013-08-16 10:10:00,
2013-08-16 03:15:00,58.6,48.8,29.79,WNW,291,0.0,0.0,70,0.00,CLR,,0.00,WeatherDisplay:10.37,2013-08-16 10:15:00,
2013-08-16 03:20:00,58.6,48.8,29.80,WNW,291,0.0,0.0,70,0.00,CLR,,0.00,WeatherDisplay:10.37,2013-08-16 10:20:00,
2013-08-16 03:25:00,58.7,48.9,29.80,WNW,291,0.0,0.0,70,0.00,CLR,,0.00,WeatherDisplay:10.37,2013-08-16 10:25:00,
2013-08-16 03:30:00,58.7,48.9,29.79,WNW,291,0.0,0.0,70,0.00,CLR,,0.00,WeatherDisplay:10.37,2013-08-16 10:30:00,
2013-08-16 03:35:00,58.7,48.9,29.79,WNW,291,0.0,0.0,70,0.00,CLR,,0.00,WeatherDisplay:10.37,2013-08-16 10:35:00,
2013-08-16 03:40:00,58.9,49.1,29.79,WNW,291,0.0,0.0,70,0.00,CLR,,0.00,WeatherDisplay:10.37,2013-08-16 10:40:00,
2013-08-16 03:45:00,58.7,48.9,29.79,WNW,291,0.0,0.0,70,0.00,CLR,,0.00,WeatherDisplay:10.37,2013-08-16 10:45:00,
2013-08-16 03:50:00,58.7,48.9,29.79,WNW,291,0.0,0.0,70,0.00,CLR,,0.00,WeatherDisplay:10.37,2013-08-16 10:50:00,
2013-08-16 03:55:00,58.6,49.2,29.79,WNW,291,0.0,0.0,71,0.00,CLR,,0.00,WeatherDisplay:10.37,2013-08-16 10:55:00,
2013-08-16 04:00:00,58.6,49.2,29.79,WNW,291,0.0,0.0,71,0.00,CLR,,0.00,WeatherDisplay:10.37,2013-08-16 11:00:00,
2013-08-16 04:05:00,58.4,49.0,29.81,WNW,291,0.0,0.0,71,0.00,CLR,,0.00,WeatherDisplay:10.37,2013-08-16 11:05:00,
2013-08-16 04:10:00,58.3,48.9,29.81,WNW,291,0.0,0.0,71,0.00,CLR,,0.00,WeatherDisplay:10.37,2013-08-16 11:10:00,
2013-08-16 04:15:00,58.1,48.7,29.81,WNW,291,0.0,0.0,71,0.00,CLR,,0.00,WeatherDisplay:10.37,2013-08-16 11:15:00,
2013-08-16 04:20:00,58.1,48.7,29.81,WNW,291,0.0,0.0,71,0.00,CLR,,0.00,WeatherDisplay:10.37,2013-08-16 11:20:00,
2013-08-16 04:25:00,58.0,49.0,29.81,WNW,291,0.0,0.0,72,0.00,CLR,,0.00,WeatherDisplay:10.37,2013-08-16 11:25:00,
2013-08-16 04:30:00,57.8,48.8,29.81,WNW,291,0.0,0.0,72,0.00,CLR,,0.00,WeatherDisplay:10.37,2013-08-16 11:30:00,
2013-08-16 04:35:00,57.8,48.8,29.81,WNW,291,0.0,0.0,72,0.00,CLR,,0.00,WeatherDisplay:10.37,2013-08-16 11:35:00,
2013-08-16 04:40:00,57.5,48.5,29.81,WNW,291,0.0,0.0,72,0.00,CLR,,0.00,WeatherDisplay:10.37,2013-08-16 11:40:00,
2013-08-16 04:45:00,57.3,48.7,29.82,WNW,291,0.0,0.0,73,0.00,CLR,,0.00,WeatherDisplay:10.37,2013-08-16 11:45:00,
2013-08-16 04:50:00,57.3,48.3,29.82,WNW,291,0.0,0.0,72,0.00,CLR,,0.00,WeatherDisplay:10.37,2013-08-16 11:50:00,
2013-08-16 04:55:00,57.0,48.4,29.82,WNW,291,0.0,0.0,73,0.00,CLR,,0.00,WeatherDisplay:10.37,2013-08-16 11:55:00,
2013-08-16 05:00:00,56.9,48.3,29.82,WNW,289,0.0,0.0,73,0.00,CLR,,0.00,WeatherDisplay:10.37,2013-08-16 12:00:00,
2013-08-16 05:05:00,56.6,48.0,29.82,WNW,288,0.0,0.0,73,0.00,CLR,,0.00,WeatherDisplay:10.37,2013-08-16 12:05:00,
2013-08-16 05:10:00,56.5,47.9,29.82,WNW,285,0.0,0.0,73,0.00,CLR,,0.00,WeatherDisplay:10.37,2013-08-16 12:10:00,
2013-08-16 05:15:00,56.5,47.9,29.82,WNW,285,0.0,0.0,73,0.00,CLR,,0.00,WeatherDisplay:10.37,2013-08-16 12:15:00,
2013-08-16 05:20:00,56.3,47.8,29.83,WNW,285,0.0,0.0,73,0.00,CLR,,0.00,WeatherDisplay:10.37,2013-08-16 12:20:00,
2013-08-16 05:25:00,56.3,47.8,29.83,WNW,285,0.0,0.0,73,0.00,CLR,,0.00,WeatherDisplay:10.37,2013-08-16 12:25:00,
2013-08-16 05:30:00,56.3,47.8,29.83,WNW,285,0.0,0.0,73,0.00,CLR,,0.00,WeatherDisplay:10.37,2013-08-16 12:30:00,
2013-08-16 05:35:00,56.2,47.7,29.83,WNW,285,0.0,0.0,73,0.00,CLR,,0.00,WeatherDisplay:10.37,2013-08-16 12:35:00,
2013-08-16 05:40:00,56.2,48.0,29.83,WNW,285,0.0,0.0,74,0.00,CLR,,0.00,WeatherDisplay:10.37,2013-08-16 12:40:00,
2013-08-16 05:45:00,56.0,47.8,29.84,WNW,285,0.0,0.0,74,0.00,CLR,,0.00,WeatherDisplay:10.37,2013-08-16 12:45:00,
2013-08-16 05:50:00,55.9,47.7,29.84,WNW,285,0.0,0.0,74,0.00,CLR,,0.00,WeatherDisplay:10.37,2013-08-16 12:50:00,
2013-08-16 05:55:00,55.9,47.7,29.84,WNW,285,0.0,0.0,74,0.00,CLR,,0.00,WeatherDisplay:10.37,2013-08-16 12:55:00,
2013-08-16 06:00:00,55.7,47.5,29.84,WNW,285,0.0,0.0,74,0.00,CLR,,0.00,WeatherDisplay:10.37,2013-08-16 13:00:00,
2013-08-16 06:05:00,55.7,47.9,29.85,WNW,285,0.0,0.0,75,0.00,CLR,,0.00,WeatherDisplay:10.37,2013-08-16 13:05:00,
2013-08-16 06:10:00,55.6,47.8,29.85,WNW,285,0.0,0.0,75,0.00,CLR,,0.00,WeatherDisplay:10.37,2013-08-16 13:10:00,
2013-08-16 06:15:00,55.6,47.8,29.85,WNW,285,0.0,0.0,75,0.00,CLR,,0.00,WeatherDisplay:10.37,2013-08-16 13:15:00,
2013-08-16 06:20:00,55.6,47.8,29.86,WNW,285,0.0,0.0,75,0.00,CLR,,0.00,WeatherDisplay:10.37,2013-08-16 13:20:00,
2013-08-16 06:25:00,55.4,47.6,29.86,WNW,285,0.0,0.0,75,0.00,CLR,,0.00,WeatherDisplay:10.37,2013-08-16 13:25:00,
2013-08-16 06:30:00,55.4,47.6,29.86,WNW,285,0.0,0.0,75,0.00,CLR,,0.00,WeatherDisplay:10.37,2013-08-16 13:30:00,
2013-08-16 06:35:00,55.4,47.6,29.86,WNW,285,0.0,0.0,75,0.00,CLR,,0.00,WeatherDisplay:10.37,2013-08-16 13:35:00,
2013-08-16 06:40:00,55.4,47.6,29.86,WNW,285,0.0,0.0,75,0.00,CLR,,0.00,WeatherDisplay:10.37,2013-08-16 13:40:00,
2013-08-16 06:45:00,55.6,47.8,29.86,WNW,285,0.0,0.0,75,0.00,CLR,,0.00,WeatherDisplay:10.37,2013-08-16 13:45:00,
2013-08-16 06:50:00,55.7,47.5,29.87,WNW,285,0.0,0.0,74,0.00,CLR,,0.00,WeatherDisplay:10.37,2013-08-16 13:50:00,
2013-08-16 06:55:00,56.0,47.8,29.87,WNW,285,0.0,0.0,74,0.00,CLR,,0.00,WeatherDisplay:10.37,2013-08-16 13:55:00,
2013-08-16 07:00:00,56.5,47.9,29.87,WNW,285,0.0,0.0,73,0.00,CLR,,0.00,WeatherDisplay:10.37,2013-08-16 14:00:00,
2013-08-16 07:05:00,56.7,47.8,29.88,WNW,285,0.0,0.0,72,0.00,CLR,,0.00,WeatherDisplay:10.37,2013-08-16 14:05:00,
2013-08-16 07:10:00,57.2,47.9,29.88,WNW,285,0.0,0.0,71,0.00,CLR,,0.00,WeatherDisplay:10.37,2013-08-16 14:10:00,
2013-08-16 07:15:00,57.5,48.2,29.88,WNW,285,0.0,0.0,71,0.00,CLR,,0.00,WeatherDisplay:10.37,2013-08-16 14:15:00,
2013-08-16 07:20:00,58.0,48.3,29.88,WNW,285,0.0,0.0,70,0.00,CLR,,0.00,WeatherDisplay:10.37,2013-08-16 14:20:00,
2013-08-16 07:25:00,58.4,48.3,29.87,WNW,285,0.0,0.0,69,0.00,CLR,,0.00,WeatherDisplay:10.37,2013-08-16 14:25:00,
2013-08-16 07:30:00,58.9,48.4,29.87,WNW,285,0.0,0.0,68,0.00,CLR,,0.00,WeatherDisplay:10.37,2013-08-16 14:30:00,
2013-08-16 07:35:00,59.3,48.7,29.87,WNW,285,0.0,0.0,68,0.00,CLR,,0.00,WeatherDisplay:10.37,2013-08-16 14:35:00,
2013-08-16 07:40:00,59.8,48.8,29.87,WNW,285,0.0,0.0,67,0.00,CLR,,0.00,WeatherDisplay:10.37,2013-08-16 14:40:00,
2013-08-16 07:45:00,60.4,49.4,29.87,WNW,285,0.0,0.0,67,0.00,CLR,,0.00,WeatherDisplay:10.37,2013-08-16 14:45:00,
2013-08-16 07:50:00,61.0,49.6,29.86,WNW,285,0.0,0.0,66,0.00,CLR,,0.00,WeatherDisplay:10.37,2013-08-16 14:50:00,
2013-08-16 07:55:00,61.6,49.7,29.86,WNW,285,0.0,0.0,65,0.00,CLR,,0.00,WeatherDisplay:10.37,2013-08-16 14:55:00,
2013-08-16 08:00:00,62.3,50.0,29.86,WNW,285,0.0,0.0,64,0.00,CLR,,0.00,WeatherDisplay:10.37,2013-08-16 15:00:00,
2013-08-16 08:05:00,63.1,50.3,29.87,WNW,285,0.0,0.0,63,0.00,CLR,,0.00,WeatherDisplay:10.37,2013-08-16 15:05:00,
2013-08-16 08:10:00,63.7,51.3,29.86,WNW,285,0.0,0.0,64,0.00,CLR,,0.00,WeatherDisplay:10.37,2013-08-16 15:10:00,
2013-08-16 08:15:00,64.5,51.2,29.86,WNW,285,0.0,0.0,62,0.00,CLR,,0.00,WeatherDisplay:10.37,2013-08-16 15:15:00,
2013-08-16 08:20:00,65.2,51.8,29.86,WNW,285,0.0,0.0,62,0.00,CLR,,0.00,WeatherDisplay:10.37,2013-08-16 15:20:00,
2013-08-16 08:25:00,65.6,51.3,29.85,WNW,285,0.0,0.0,60,0.00,CLR,,0.00,WeatherDisplay:10.37,2013-08-16 15:25:00,
2013-08-16 08:30:00,66.3,51.5,29.85,WNW,285,0.0,0.0,59,0.00,CLR,,0.00,WeatherDisplay:10.37,2013-08-16 15:30:00,
2013-08-16 08:35:00,67.1,50.9,29.85,WNW,285,0.0,0.0,56,0.00,CLR,,0.00,WeatherDisplay:10.37,2013-08-16 15:35:00,
2013-08-16 08:40:00,67.9,51.6,29.85,WNW,285,0.0,0.0,56,0.00,CLR,,0.00,WeatherDisplay:10.37,2013-08-16 15:40:00,
2013-08-16 08:45:00,68.3,51.5,29.85,WNW,285,0.0,0.0,55,0.00,CLR,,0.00,WeatherDisplay:10.37,2013-08-16 15:45:00,
2013-08-16 08:50:00,68.1,51.8,29.84,WNW,285,0.0,0.0,56,0.00,CLR,,0.00,WeatherDisplay:10.37,2013-08-16 15:50:00,
2013-08-16 08:55:00,68.3,52.5,29.84,WNW,285,0.0,0.0,57,0.00,CLR,,0.00,WeatherDisplay:10.37,2013-08-16 15:55:00,
2013-08-16 09:00:00,68.4,51.1,29.84,WNW,285,0.0,0.0,54,0.00,CLR,,0.00,WeatherDisplay:10.37,2013-08-16 16:00:00,
2013-08-16 09:05:00,69.1,51.8,29.85,WNW,285,0.0,0.0,54,0.00,CLR,,0.00,WeatherDisplay:10.37,2013-08-16 16:05:00,
2013-08-16 09:10:00,69.8,51.4,29.85,WNW,285,0.0,0.0,52,0.00,CLR,,0.00,WeatherDisplay:10.37,2013-08-16 16:10:00,
2013-08-16 09:15:00,69.8,51.4,29.85,WNW,285,0.0,0.0,52,0.00,CLR,,0.00,WeatherDisplay:10.37,2013-08-16 16:15:00,
2013-08-16 09:20:00,70.3,51.8,29.84,WNW,285,0.0,0.0,52,0.00,CLR,,0.00,WeatherDisplay:10.37,2013-08-16 16:20:00,
2013-08-16 09:25:00,70.8,51.2,29.84,WNW,285,0.0,0.0,50,0.00,CLR,,0.00,WeatherDisplay:10.37,2013-08-16 16:25:00,
2013-08-16 09:30:00,71.1,51.5,29.83,WNW,285,0.0,0.0,50,0.00,CLR,,0.00,WeatherDisplay:10.37,2013-08-16 16:30:00,
2013-08-16 09:35:00,71.8,51.6,29.83,WNW,285,0.0,0.0,49,0.00,CLR,,0.00,WeatherDisplay:10.37,2013-08-16 16:35:00,
2013-08-16 09:40:00,72.5,51.7,29.82,WNW,285,0.0,0.0,48,0.00,CLR,,0.00,WeatherDisplay:10.37,2013-08-16 16:40:00,
2013-08-16 09:45:00,72.8,50.8,29.83,WNW,285,0.0,0.0,46,0.00,CLR,,0.00,WeatherDisplay:10.37,2013-08-16 16:45:00,
2013-08-16 09:50:00,73.3,51.3,29.82,WNW,285,0.0,0.0,46,0.00,CLR,,0.00,WeatherDisplay:10.37,2013-08-16 16:50:00,
2013-08-16 09:55:00,73.5,51.4,29.82,WNW,285,0.0,0.0,46,0.00,CLR,,0.00,WeatherDisplay:10.37,2013-08-16 16:55:00,
2013-08-16 10:00:00,73.3,50.1,29.82,WNW,285,0.0,0.0,44,0.00,CLR,,0.00,WeatherDisplay:10.37,2013-08-16 17:00:00,
2013-08-16 10:05:00,73.2,50.0,29.84,WNW,287,0.0,0.0,44,0.00,CLR,,0.00,WeatherDisplay:10.37,2013-08-16 17:05:00,
2013-08-16 10:10:00,73.2,51.8,29.84,WNW,285,0.0,0.0,47,0.00,CLR,,0.00,WeatherDisplay:10.37,2013-08-16 17:10:00,
2013-08-16 10:15:00,73.5,52.0,29.84,WNW,287,0.0,0.0,47,0.00,CLR,,0.00,WeatherDisplay:10.37,2013-08-16 17:15:00,
2013-08-16 10:20:00,73.9,51.8,29.83,WNW,285,0.0,0.0,46,0.00,CLR,,0.00,WeatherDisplay:10.37,2013-08-16 17:20:00,
2013-08-16 10:25:00,74.4,51.1,29.84,WNW,285,0.0,0.0,44,0.00,CLR,,0.00,WeatherDisplay:10.37,2013-08-16 17:25:00,
2013-08-16 10:30:00,74.0,50.7,29.84,WNW,285,0.0,0.0,44,0.00,CLR,,0.00,WeatherDisplay:10.37,2013-08-16 17:30:00,
2013-08-16 10:35:00,74.4,51.7,29.83,WNW,285,0.0,0.0,45,0.00,CLR,,0.00,WeatherDisplay:10.37,2013-08-16 17:35:00,
2013-08-16 10:40:00,74.6,50.6,29.83,WNW,285,0.0,0.0,43,0.00,CLR,,0.00,WeatherDisplay:10.37,2013-08-16 17:40:00,
2013-08-16 10:45:00,74.9,50.9,29.83,WNW,285,0.0,0.0,43,0.00,CLR,,0.00,WeatherDisplay:10.37,2013-08-16 17:45:00,
2013-08-16 10:50:00,75.3,48.6,29.83,WNW,285,0.0,0.0,39,0.00,CLR,,0.00,WeatherDisplay:10.37,2013-08-16 17:50:00,
2013-08-16 10:55:00,76.0,49.2,29.82,WNW,285,0.0,0.0,39,0.00,CLR,,0.00,WeatherDisplay:10.37,2013-08-16 17:55:00,
2013-08-16 11:00:00,76.5,49.7,29.82,WNW,285,0.0,0.0,39,0.00,CLR,,0.00,WeatherDisplay:10.37,2013-08-16 18:00:00,
2013-08-16 11:05:00,77.2,49.6,29.82,WNW,285,0.0,0.0,38,0.00,CLR,,0.00,WeatherDisplay:10.37,2013-08-16 18:05:00,
2013-08-16 11:10:00,77.0,50.1,29.82,WNW,285,0.0,0.0,39,0.00,CLR,,0.00,WeatherDisplay:10.37,2013-08-16 18:10:00,
2013-08-16 11:15:00,77.6,49.3,29.82,WNW,289,0.0,0.0,37,0.00,CLR,,0.00,WeatherDisplay:10.37,2013-08-16 18:15:00,
2013-08-16 11:20:00,77.7,49.3,29.81,WNW,291,0.0,0.0,37,0.00,CLR,,0.00,WeatherDisplay:10.37,2013-08-16 18:20:00,
2013-08-16 11:25:00,77.7,51.5,29.81,NW,312,0.0,0.0,40,0.00,CLR,,0.00,WeatherDisplay:10.37,2013-08-16 18:25:00,
2013-08-16 11:30:00,77.7,51.5,29.81,NW,312,0.0,0.0,40,0.00,CLR,,0.00,WeatherDisplay:10.37,2013-08-16 18:30:00,
2013-08-16 11:35:00,77.4,49.1,29.81,WNW,299,0.0,0.0,37,0.00,CLR,,0.00,WeatherDisplay:10.37,2013-08-16 18:35:00,
2013-08-16 11:40:00,78.3,50.6,29.81,WNW,299,0.0,0.0,38,0.00,CLR,,0.00,WeatherDisplay:10.37,2013-08-16 18:40:00,
2013-08-16 11:45:00,78.5,50.8,29.80,WNW,299,0.0,0.0,38,0.00,CLR,,0.00,WeatherDisplay:10.37,2013-08-16 18:45:00,
2013-08-16 11:50:00,78.8,50.3,29.80,WNW,299,0.0,0.0,37,0.00,CLR,,0.00,WeatherDisplay:10.37,2013-08-16 18:50:00,
2013-08-16 11:55:00,79.2,49.2,29.80,WNW,299,0.0,0.0,35,0.00,CLR,,0.00,WeatherDisplay:10.37,2013-08-16 18:55:00,
2013-08-16 12:00:00,80.3,50.9,29.79,WNW,298,0.0,0.0,36,0.00,CLR,,0.00,WeatherDisplay:10.37,2013-08-16 19:00:00,
2013-08-16 12:05:00,80.5,50.3,29.80,WNW,287,0.0,0.0,35,0.00,CLR,,0.00,WeatherDisplay:10.37,2013-08-16 19:05:00,
2013-08-16 12:10:00,80.5,51.8,29.79,WNW,285,0.0,0.0,37,0.00,CLR,,0.00,WeatherDisplay:10.37,2013-08-16 19:10:00,
2013-08-16 12:15:00,80.3,49.4,29.79,West,280,0.0,0.0,34,0.00,CLR,,0.00,WeatherDisplay:10.37,2013-08-16 19:15:00,
2013-08-16 12:20:00,79.9,47.4,29.79,West,280,0.0,0.0,32,0.00,CLR,,0.00,WeatherDisplay:10.37,2013-08-16 19:20:00,
2013-08-16 12:25:00,80.1,51.5,29.79,West,280,0.0,0.0,37,0.00,CLR,,0.00,WeatherDisplay:10.37,2013-08-16 19:25:00,
2013-08-16 12:30:00,80.5,47.9,29.79,West,280,0.0,0.0,32,0.00,CLR,,0.00,WeatherDisplay:10.37,2013-08-16 19:30:00,
2013-08-16 12:35:00,79.9,48.2,29.79,West,280,0.0,0.0,33,0.00,CLR,,0.00,WeatherDisplay:10.37,2013-08-16 19:35:00,
2013-08-16 12:40:00,79.6,47.1,29.79,NNW,346,0.0,0.0,32,0.00,CLR,,0.00,WeatherDisplay:10.37,2013-08-16 19:40:00,
2013-08-16 12:45:00,80.5,47.9,29.78,NNW,346,0.0,0.0,32,0.00,CLR,,0.00,WeatherDisplay:10.37,2013-08-16 19:45:00,
2013-08-16 12:50:00,81.2,46.8,29.78,NNW,346,0.0,0.0,30,0.00,CLR,,0.00,WeatherDisplay:10.37,2013-08-16 19:50:00,
2013-08-16 12:55:00,81.6,48.9,29.77,NNW,346,0.0,0.0,32,0.00,CLR,,0.00,WeatherDisplay:10.37,2013-08-16 19:55:00,
2013-08-16 13:00:00,81.6,46.3,29.77,NNW,346,0.0,0.0,29,0.00,CLR,,0.00,WeatherDisplay:10.37,2013-08-16 20:00:00,
2013-08-16 13:05:00,81.2,50.2,29.79,NNW,346,0.0,0.0,34,0.00,CLR,,0.00,WeatherDisplay:10.37,2013-08-16 20:05:00,
2013-08-16 13:10:00,81.1,45.8,29.78,NNW,346,0.0,0.0,29,0.00,CLR,,0.00,WeatherDisplay:10.37,2013-08-16 20:10:00,
2013-08-16 13:15:00,81.2,48.5,29.78,NNW,346,0.0,0.0,32,0.00,CLR,,0.00,WeatherDisplay:10.37,2013-08-16 20:15:00,
2013-08-16 13:20:00,81.6,47.2,29.77,NNW,346,0.0,0.0,30,0.00,CLR,,0.00,WeatherDisplay:10.37,2013-08-16 20:20:00,
2013-08-16 13:25:00,81.8,46.4,29.77,NNW,346,0.0,0.0,29,0.00,CLR,,0.00,WeatherDisplay:10.37,2013-08-16 20:25:00,
2013-08-16 13:30:00,82.6,47.1,29.77,NNW,346,0.0,0.0,29,0.00,CLR,,0.00,WeatherDisplay:10.37,2013-08-16 20:30:00,
2013-08-16 13:35:00,82.0,44.7,29.77,NW,316,0.0,0.0,27,0.00,CLR,,0.00,WeatherDisplay:10.37,2013-08-16 20:35:00,
2013-08-16 13:40:00,81.2,45.0,29.78,NW,316,0.0,0.0,28,0.00,CLR,,0.00,WeatherDisplay:10.37,2013-08-16 20:40:00,
2013-08-16 13:45:00,80.9,46.6,29.78,WNW,298,0.0,0.0,30,0.00,CLR,,0.00,WeatherDisplay:10.37,2013-08-16 20:45:00,
2013-08-16 13:50:00,79.4,50.9,29.79,WNW,295,0.0,0.0,37,0.00,CLR,,0.00,WeatherDisplay:10.37,2013-08-16 20:50:00,
2013-08-16 13:55:00,78.1,51.1,29.79,West,278,1.1,0.0,39,0.00,CLR,,0.00,WeatherDisplay:10.37,2013-08-16 20:55:00,
2013-08-16 14:00:00,77.6,51.4,29.80,WNW,287,11.5,11.5,40,0.00,CLR,,0.00,WeatherDisplay:10.37,2013-08-16 21:00:00,
2013-08-16 14:05:00,77.0,51.5,29.80,WNW,298,11.5,11.5,41,0.00,CLR,,0.00,WeatherDisplay:10.37,2013-08-16 21:05:00,
2013-08-16 14:10:00,76.5,51.7,29.81,WNW,294,1.0,0.0,42,0.00,CLR,,0.00,WeatherDisplay:10.37,2013-08-16 21:10:00,
2013-08-16 14:15:00,76.7,51.9,29.81,WNW,287,0.0,0.0,42,0.00,CLR,,0.00,WeatherDisplay:10.37,2013-08-16 21:15:00,
2013-08-16 14:20:00,77.2,51.0,29.80,WNW,289,2.3,2.3,40,0.00,CLR,,0.00,WeatherDisplay:10.37,2013-08-16 21:20:00,
2013-08-16 14:25:00,77.6,50.7,29.80,WNW,287,0.0,0.0,39,0.00,CLR,,0.00,WeatherDisplay:10.37,2013-08-16 21:25:00,
2013-08-16 14:30:00,77.9,50.9,29.79,WNW,292,0.0,0.0,39,0.00,CLR,,0.00,WeatherDisplay:10.37,2013-08-16 21:30:00,
2013-08-16 14:35:00,77.9,50.2,29.80,NW,306,2.0,2.0,38,0.00,CLR,,0.00,WeatherDisplay:10.37,2013-08-16 21:35:00,
2013-08-16 14:40:00,78.1,49.7,29.79,WNW,287,1.1,1.1,37,0.00,CLR,,0.00,WeatherDisplay:10.37,2013-08-16 21:40:00,
2013-08-16 14:45:00,78.3,51.3,29.79,WNW,299,0.0,0.0,39,0.00,CLR,,0.00,WeatherDisplay:10.37,2013-08-16 21:45:00,
2013-08-16 14:50:00,78.5,50.8,29.78,WNW,298,0.0,0.0,38,0.00,CLR,,0.00,WeatherDisplay:10.37,2013-08-16 21:50:00,
2013-08-16 14:55:00,78.8,51.0,29.78,NW,312,0.0,0.0,38,0.00,CLR,,0.00,WeatherDisplay:10.37,2013-08-16 21:55:00,
2013-08-16 15:00:00,79.2,49.9,29.78,WNW,291,0.0,0.0,36,0.00,CLR,,0.00,WeatherDisplay:10.37,2013-08-16 22:00:00,
2013-08-16 15:05:00,79.4,50.1,29.78,WNW,298,0.0,0.0,36,0.00,CLR,,0.00,WeatherDisplay:10.37,2013-08-16 22:05:00,
2013-08-16 15:10:00,80.1,50.0,29.78,NW,304,0.0,0.0,35,0.00,CLR,,0.00,WeatherDisplay:10.37,2013-08-16 22:10:00,
2013-08-16 15:15:00,81.1,49.3,29.77,WNW,287,3.0,0.0,33,0.00,CLR,,0.00,WeatherDisplay:10.37,2013-08-16 22:15:00,
2013-08-16 15:20:00,81.4,51.1,29.77,NW,304,0.0,0.0,35,0.00,CLR,,0.00,WeatherDisplay:10.37,2013-08-16 22:20:00,
2013-08-16 15:25:00,81.6,48.9,29.77,WNW,291,1.1,1.1,32,0.00,CLR,,0.00,WeatherDisplay:10.37,2013-08-16 22:25:00,
2013-08-16 15:30:00,80.9,49.9,29.77,WNW,301,2.3,2.3,34,0.00,CLR,,0.00,WeatherDisplay:10.37,2013-08-16 22:30:00,
2013-08-16 15:35:00,79.9,49.0,29.78,WNW,299,3.5,3.5,34,0.00,CLR,,0.00,WeatherDisplay:10.37,2013-08-16 22:35:00,
2013-08-16 15:40:00,79.6,49.5,29.78,WNW,296,1.1,1.1,35,0.00,CLR,,0.00,WeatherDisplay:10.37,2013-08-16 22:40:00,
2013-08-16 15:45:00,79.2,49.9,29.78,WNW,298,1.0,1.0,36,0.00,CLR,,0.00,WeatherDisplay:10.37,2013-08-16 22:45:00,
2013-08-16 15:50:00,79.2,49.2,29.78,NW,309,5.0,5.0,35,0.00,CLR,,0.00,WeatherDisplay:10.37,2013-08-16 22:50:00,
2013-08-16 15:55:00,79.2,49.2,29.78,WNW,285,0.0,0.0,35,0.00,CLR,,0.00,WeatherDisplay:10.37,2013-08-16 22:55:00,
2013-08-16 16:00:00,79.9,49.8,29.78,NW,306,0.0,0.0,35,0.00,CLR,,0.00,WeatherDisplay:10.37,2013-08-16 23:00:00,
2013-08-16 16:05:00,80.5,48.7,29.78,WNW,296,1.1,1.1,33,0.00,CLR,,0.00,WeatherDisplay:10.37,2013-08-16 23:05:00,
2013-08-16 16:10:00,79.9,49.8,29.79,WNW,284,1.1,0.0,35,0.00,CLR,,0.00,WeatherDisplay:10.37,2013-08-16 23:10:00,
2013-08-16 16:15:00,79.6,51.0,29.80,WNW,282,1.1,0.0,37,0.00,CLR,,0.00,WeatherDisplay:10.37,2013-08-16 23:15:00,
2013-08-16 16:20:00,77.9,54.8,29.81,NNW,342,0.0,0.0,45,0.01,RA,,0.01,WeatherDisplay:10.37,2013-08-16 23:20:00,
2013-08-16 16:25:00,76.5,55.3,29.81,West,271,0.0,0.0,48,0.01,RA,,0.01,WeatherDisplay:10.37,2013-08-16 23:25:00,
2013-08-16 16:30:00,74.9,58.6,29.81,West,271,0.0,0.0,57,0.01,,,0.01,WeatherDisplay:10.37,2013-08-16 23:30:00,
2013-08-16 16:35:00,74.7,56.4,29.81,East,80,0.0,0.0,53,0.01,CLR,,0.01,WeatherDisplay:10.37,2013-08-16 23:35:00,
2013-08-16 16:40:00,74.9,58.6,29.80,East,80,0.0,0.0,57,0.01,CLR,,0.01,WeatherDisplay:10.37,2013-08-16 23:40:00,
2013-08-16 16:45:00,75.1,58.3,29.80,East,80,0.0,0.0,56,0.01,CLR,,0.01,WeatherDisplay:10.37,2013-08-16 23:45:00,
2013-08-16 16:50:00,75.4,60.1,29.80,East,80,0.0,0.0,59,0.01,CLR,,0.01,WeatherDisplay:10.37,2013-08-16 23:50:00,
2013-08-16 16:55:00,76.0,59.7,29.80,East,80,0.0,0.0,57,0.01,CLR,,0.01,WeatherDisplay:10.37,2013-08-16 23:55:00,
2013-08-16 17:00:00,76.8,56.8,29.79,East,80,0.0,0.0,50,0.01,CLR,,0.01,WeatherDisplay:10.37,2013-08-17 00:00:00,
2013-08-16 17:05:00,78.1,52.5,29.80,WNW,296,0.0,0.0,41,0.01,CLR,,0.01,WeatherDisplay:10.37,2013-08-17 00:05:00,
2013-08-16 17:10:00,79.4,53.0,29.79,NW,325,0.0,0.0,40,0.01,CLR,,0.01,WeatherDisplay:10.37,2013-08-17 00:10:00,
2013-08-16 17:15:00,80.1,53.6,29.78,WNW,295,0.0,0.0,40,0.01,CLR,,0.01,WeatherDisplay:10.37,2013-08-17 00:15:00,
2013-08-16 17:20:00,80.3,51.7,29.79,WNW,288,0.0,0.0,37,0.00,CLR,,0.01,WeatherDisplay:10.37,2013-08-17 00:20:00,
2013-08-16 17:25:00,80.7,52.0,29.78,WNW,284,1.0,0.0,37,0.00,CLR,,0.01,WeatherDisplay:10.37,2013-08-17 00:25:00,
2013-08-16 17:30:00,80.5,52.6,29.78,WNW,291,1.0,0.0,38,0.00,CLR,,0.01,WeatherDisplay:10.37,2013-08-17 00:30:00,
2013-08-16 17:35:00,79.4,53.0,29.79,WNW,288,13.0,13.0,40,0.00,CLR,,0.01,WeatherDisplay:10.37,2013-08-17 00:35:00,
2013-08-16 17:40:00,78.6,52.9,29.79,WNW,294,11.0,11.0,41,0.00,CLR,,0.01,WeatherDisplay:10.37,2013-08-17 00:40:00,
2013-08-16 17:45:00,78.5,52.2,29.80,WNW,296,4.6,4.6,40,0.00,CLR,,0.01,WeatherDisplay:10.37,2013-08-17 00:45:00,
2013-08-16 17:50:00,78.1,52.5,29.80,WNW,299,0.0,0.0,41,0.00,CLR,,0.01,WeatherDisplay:10.37,2013-08-17 00:50:00,
2013-08-16 17:55:00,77.6,51.4,29.80,West,280,16.0,16.0,40,0.00,CLR,,0.01,WeatherDisplay:10.37,2013-08-17 00:55:00,
2013-08-16 18:00:00,77.4,52.5,29.81,WNW,296,3.0,3.0,42,0.00,CLR,,0.01,WeatherDisplay:10.37,2013-08-17 01:00:00,
2013-08-16 18:05:00,77.6,52.0,29.80,WNW,288,0.0,0.0,41,0.00,CLR,,0.01,WeatherDisplay:10.37,2013-08-17 01:05:00,
2013-08-16 18:10:00,77.6,52.7,29.80,WNW,291,6.0,6.0,42,0.00,CLR,,0.01,WeatherDisplay:10.37,2013-08-17 01:10:00,
2013-08-16 18:15:00,77.4,51.9,29.80,WNW,288,2.0,2.0,41,0.00,CLR,,0.01,WeatherDisplay:10.37,2013-08-17 01:15:00,
2013-08-16 18:20:00,76.8,52.0,29.80,WNW,287,5.0,5.0,42,0.00,CLR,,0.01,WeatherDisplay:10.37,2013-08-17 01:20:00,
2013-08-16 18:25:00,76.7,51.9,29.80,WNW,294,2.3,2.3,42,0.00,CLR,,0.01,WeatherDisplay:10.37,2013-08-17 01:25:00,
2013-08-16 18:30:00,76.5,53.0,29.81,NW,305,0.0,0.0,44,0.00,CLR,,0.01,WeatherDisplay:10.37,2013-08-17 01:30:00,
2013-08-16 18:35:00,76.3,52.8,29.82,NW,304,0.0,0.0,44,0.00,CLR,,0.01,WeatherDisplay:10.37,2013-08-17 01:35:00,
2013-08-16 18:40:00,76.1,52.6,29.81,WNW,294,5.0,5.0,44,0.00,CLR,,0.01,WeatherDisplay:10.37,2013-08-17 01:40:00,
2013-08-16 18:45:00,76.0,52.5,29.82,WNW,288,0.0,0.0,44,0.00,CLR,,0.01,WeatherDisplay:10.37,2013-08-17 01:45:00,
2013-08-16 18:50:00,75.8,52.3,29.82,West,278,1.1,0.0,44,0.00,CLR,,0.01,WeatherDisplay:10.37,2013-08-17 01:50:00,
2013-08-16 18:55:00,75.6,52.1,29.82,WNW,292,1.0,1.0,44,0.00,CLR,,0.01,WeatherDisplay:10.37,2013-08-17 01:55:00,
2013-08-16 19:00:00,75.3,52.5,29.82,WNW,294,0.0,0.0,45,0.00,CLR,,0.01,WeatherDisplay:10.37,2013-08-17 02:00:00,
2013-08-16 19:05:00,75.1,52.3,29.81,WNW,289,0.0,0.0,45,0.00,CLR,,0.01,WeatherDisplay:10.37,2013-08-17 02:05:00,
2013-08-16 19:10:00,75.1,52.3,29.82,WNW,296,0.0,0.0,45,0.00,CLR,,0.01,WeatherDisplay:10.37,2013-08-17 02:10:00,
2013-08-16 19:15:00,75.1,52.9,29.82,WNW,294,0.0,0.0,46,0.00,CLR,,0.01,WeatherDisplay:10.37,2013-08-17 02:15:00,
2013-08-16 19:20:00,75.1,52.3,29.82,WNW,296,2.3,0.0,45,0.00,CLR,,0.01,WeatherDisplay:10.37,2013-08-17 02:20:00,
2013-08-16 19:25:00,74.9,51.5,29.82,WNW,291,3.5,0.0,44,0.00,CLR,,0.01,WeatherDisplay:10.37,2013-08-17 02:25:00,
2013-08-16 19:30:00,74.7,51.9,29.82,WNW,291,2.3,0.0,45,0.00,CLR,,0.01,WeatherDisplay:10.37,2013-08-17 02:30:00,
2013-08-16 19:35:00,74.6,51.9,29.82,WNW,301,1.0,0.0,45,0.00,CLR,,0.01,WeatherDisplay:10.37,2013-08-17 02:35:00,
2013-08-16 19:40:00,74.6,51.2,29.83,WNW,288,3.5,3.5,44,0.00,CLR,,0.01,WeatherDisplay:10.37,2013-08-17 02:40:00,
2013-08-16 19:45:00,74.6,51.9,29.83,WNW,288,2.3,0.0,45,0.00,CLR,,0.01,WeatherDisplay:10.37,2013-08-17 02:45:00,
2013-08-16 19:50:00,74.4,51.7,29.83,WNW,298,2.3,0.0,45,0.00,CLR,,0.01,WeatherDisplay:10.37,2013-08-17 02:50:00,
2013-08-16 19:55:00,74.2,52.1,29.83,WNW,288,0.0,0.0,46,0.00,CLR,,0.01,WeatherDisplay:10.37,2013-08-17 02:55:00,
2013-08-16 20:00:00,73.9,52.4,29.83,WNW,301,0.0,0.0,47,0.00,CLR,,0.01,WeatherDisplay:10.37,2013-08-17 03:00:00,
2013-08-16 20:05:00,73.7,52.2,29.81,WNW,301,0.0,0.0,47,0.00,CLR,,0.01,WeatherDisplay:10.37,2013-08-17 03:05:00,
2013-08-16 20:10:00,73.5,52.0,29.82,WNW,301,0.0,0.0,47,0.00,CLR,,0.01,WeatherDisplay:10.37,2013-08-17 03:10:00,
2013-08-16 20:15:00,73.3,52.4,29.83,WNW,301,0.0,0.0,48,0.00,CLR,,0.01,WeatherDisplay:10.37,2013-08-17 03:15:00,
2013-08-16 20:20:00,73.0,52.1,29.83,WNW,298,0.0,0.0,48,0.00,CLR,,0.01,WeatherDisplay:10.37,2013-08-17 03:20:00,
2013-08-16 20:25:00,72.7,52.4,29.83,WNW,298,0.0,0.0,49,0.00,CLR,,0.01,WeatherDisplay:10.37,2013-08-17 03:25:00,
2013-08-16 20:30:00,72.5,52.2,29.83,WNW,298,0.0,0.0,49,0.00,CLR,,0.01,WeatherDisplay:10.37,2013-08-17 03:30:00,
2013-08-16 20:35:00,72.3,52.1,29.83,WNW,298,0.0,0.0,49,0.00,CLR,,0.01,WeatherDisplay:10.37,2013-08-17 03:35:00,
2013-08-16 20:40:00,72.0,52.3,29.83,WNW,298,0.0,0.0,50,0.00,CLR,,0.01,WeatherDisplay:10.37,2013-08-17 03:40:00,
2013-08-16 20:45:00,71.8,52.2,29.83,WNW,298,0.0,0.0,50,0.00,CLR,,0.01,WeatherDisplay:10.37,2013-08-17 03:45:00,
2013-08-16 20:50:00,71.6,52.0,29.83,WNW,298,0.0,0.0,50,0.00,CLR,,0.01,WeatherDisplay:10.37,2013-08-17 03:50:00,
2013-08-16 20:55:00,71.5,51.9,29.84,WNW,298,0.0,0.0,50,0.00,CLR,,0.01,WeatherDisplay:10.37,2013-08-17 03:55:00,
2013-08-16 21:00:00,71.3,52.2,29.85,WNW,299,0.0,0.0,51,0.00,CLR,,0.01,WeatherDisplay:10.37,2013-08-17 04:00:00,
2013-08-16 21:01:00,71.1,52.0,29.85,WNW,298,0.0,0.0,51,0.00,CLR,,0.01,WeatherDisplay:10.37,2013-08-17 04:01:00,
2013-08-16 21:02:00,71.1,52.0,29.83,WNW,298,0.0,0.0,51,0.00,CLR,,0.01,WeatherDisplay:10.37,2013-08-17 04:02:00,
2013-08-16 21:05:00,70.9,51.9,29.83,WNW,298,0.0,0.0,51,0.00,CLR,,0.01,WeatherDisplay:10.37,2013-08-17 04:05:00,
2013-08-16 21:06:00,70.9,51.9,29.83,WNW,298,0.0,0.0,51,0.00,CLR,,0.01,WeatherDisplay:10.37,2013-08-17 04:06:00,
2013-08-16 21:11:00,70.8,52.3,29.83,WNW,298,0.0,0.0,52,0.00,CLR,,0.01,WeatherDisplay:10.37,2013-08-17 04:11:00,
2013-08-16 21:16:00,70.6,52.1,29.83,WNW,298,0.0,0.0,52,0.00,CLR,,0.01,WeatherDisplay:10.37,2013-08-17 04:16:00,
2013-08-16 21:21:00,70.4,52.4,29.84,WNW,298,0.0,0.0,53,0.00,CLR,,0.01,WeatherDisplay:10.37,2013-08-17 04:21:00,
2013-08-16 21:26:00,70.1,52.2,29.84,WNW,298,0.0,0.0,53,0.00,CLR,,0.01,WeatherDisplay:10.37,2013-08-17 04:26:00,
2013-08-16 21:31:00,69.9,52.0,29.84,WNW,298,0.0,0.0,53,0.00,CLR,,0.01,WeatherDisplay:10.37,2013-08-17 04:31:00,
2013-08-16 21:36:00,69.8,51.9,29.84,WNW,299,0.0,0.0,53,0.00,CLR,,0.01,WeatherDisplay:10.37,2013-08-17 04:36:00,
2013-08-16 21:41:00,69.6,52.2,29.84,WNW,299,0.0,0.0,54,0.00,CLR,,0.01,WeatherDisplay:10.37,2013-08-17 04:41:00,
2013-08-16 21:46:00,69.3,51.9,29.85,WNW,299,0.0,0.0,54,0.00,CLR,,0.01,WeatherDisplay:10.37,2013-08-17 04:46:00,
2013-08-16 21:51:00,69.1,52.2,29.85,WNW,299,0.0,0.0,55,0.00,CLR,,0.01,WeatherDisplay:10.37,2013-08-17 04:51:00,
2013-08-16 21:56:00,68.9,52.6,29.85,WNW,299,0.0,0.0,56,0.00,CLR,,0.01,WeatherDisplay:10.37,2013-08-17 04:56:00,
2013-08-16 22:01:00,68.6,52.3,29.85,WNW,299,0.0,0.0,56,0.00,CLR,,0.01,WeatherDisplay:10.37,2013-08-17 05:01:00,
2013-08-16 22:06:00,68.4,52.1,29.84,WNW,299,0.0,0.0,56,0.00,CLR,,0.01,WeatherDisplay:10.37,2013-08-17 05:06:00,
2013-08-16 22:11:00,68.3,52.0,29.85,WNW,299,0.0,0.0,56,0.00,CLR,,0.01,WeatherDisplay:10.37,2013-08-17 05:11:00,
2013-08-16 22:16:00,68.1,52.3,29.84,WNW,299,0.0,0.0,57,0.00,CLR,,0.01,WeatherDisplay:10.37,2013-08-17 05:16:00,
2013-08-16 22:21:00,67.8,52.5,29.84,WNW,299,0.0,0.0,58,0.00,CLR,,0.01,WeatherDisplay:10.37,2013-08-17 05:21:00,
2013-08-16 22:26:00,67.4,52.1,29.85,WNW,299,0.0,0.0,58,0.00,CLR,,0.01,WeatherDisplay:10.37,2013-08-17 05:26:00,
2013-08-16 22:31:00,67.4,52.1,29.85,WNW,299,0.0,0.0,58,0.00,CLR,,0.01,WeatherDisplay:10.37,2013-08-17 05:31:00,
2013-08-16 22:36:00,67.3,52.5,29.85,WNW,299,0.0,0.0,59,0.00,CLR,,0.01,WeatherDisplay:10.37,2013-08-17 05:36:00,
2013-08-16 22:41:00,67.3,52.5,29.85,WNW,299,0.0,0.0,59,0.00,CLR,,0.01,WeatherDisplay:10.37,2013-08-17 05:41:00,
2013-08-16 22:46:00,67.1,52.3,29.85,WNW,299,0.0,0.0,59,0.00,CLR,,0.01,WeatherDisplay:10.37,2013-08-17 05:46:00,
2013-08-16 22:51:00,66.8,52.0,29.85,WNW,299,0.0,0.0,59,0.00,CLR,,0.01,WeatherDisplay:10.37,2013-08-17 05:51:00,
2013-08-16 22:56:00,66.4,52.1,29.85,WNW,299,0.0,0.0,60,0.00,CLR,,0.01,WeatherDisplay:10.37,2013-08-17 05:56:00,
2013-08-16 23:01:00,66.1,52.3,29.85,WNW,299,0.0,0.0,61,0.00,CLR,,0.01,WeatherDisplay:10.37,2013-08-17 06:01:00,
2013-08-16 23:06:00,65.6,52.2,29.84,WNW,299,0.0,0.0,62,0.00,CLR,,0.01,WeatherDisplay:10.37,2013-08-17 06:06:00,
2013-08-16 23:11:00,65.3,52.4,29.84,WNW,299,0.0,0.0,63,0.00,CLR,,0.01,WeatherDisplay:10.37,2013-08-17 06:11:00,
2013-08-16 23:16:00,65.2,52.3,29.85,WNW,299,0.0,0.0,63,0.00,CLR,,0.01,WeatherDisplay:10.37,2013-08-17 06:16:00,
2013-08-16 23:21:00,64.8,52.3,29.85,WNW,299,0.0,0.0,64,0.00,CLR,,0.01,WeatherDisplay:10.37,2013-08-17 06:21:00,
2013-08-16 23:26:00,64.3,52.3,29.85,WNW,299,0.0,0.0,65,0.00,CLR,,0.01,WeatherDisplay:10.37,2013-08-17 06:26:00,
2013-08-16 23:31:00,64.0,52.4,29.85,WNW,299,0.0,0.0,66,0.00,CLR,,0.01,WeatherDisplay:10.37,2013-08-17 06:31:00,
2013-08-16 23:36:00,63.7,52.5,29.85,WNW,299,0.0,0.0,67,0.00,CLR,,0.01,WeatherDisplay:10.37,2013-08-17 06:36:00,
2013-08-16 23:41:00,63.4,52.2,29.85,WNW,299,0.0,0.0,67,0.00,CLR,,0.01,WeatherDisplay:10.37,2013-08-17 06:41:00,
2013-08-16 23:46:00,63.4,52.2,29.85,WNW,299,0.0,0.0,67,0.00,CLR,,0.01,WeatherDisplay:10.37,2013-08-17 06:46:00,
2013-08-16 23:51:00,63.4,51.8,29.86,WNW,299,0.0,0.0,66,0.00,CLR,,0.01,WeatherDisplay:10.37,2013-08-17 06:51:00,
2013-08-16 23:56:00,63.4,52.2,29.86,WNW,299,0.0,0.0,67,0.00,CLR,,0.01,WeatherDisplay:10.37,2013-08-17 06:56:00,